TimeCST,TemperatureF,Dew PointF,Humidity,Sea Level PressureIn,VisibilityMPH,Wind Direction,Wind SpeedMPH,Gust SpeedMPH,PrecipitationIn,Events,Conditions,WindDirDegrees,DateUTC
12:15 AM,24.3,19.4,82,30.23,10.0,NNW,6.9,-,N/A,,Clear,340,2012-02-18 06:15:00
12:35 AM,23.7,19.0,82,30.23,10.0,NNW,5.8,-,N/A,,Clear,330,2012-02-18 06:35:00
12:55 AM,23.2,19.2,85,30.24,10.0,NW,4.6,-,N/A,,Clear,310,2012-02-18 06:55:00
1:15 AM,22.8,19.0,85,30.24,10.0,NW,4.6,-,N/A,,Clear,310,2012-02-18 07:15:00
1:35 AM,24.3,19.2,81,30.24,10.0,NW,5.8,-,N/A,,Clear,310,2012-02-18 07:35:00
1:55 AM,23.7,18.7,81,30.25,10.0,NW,5.8,-,N/A,,Clear,310,2012-02-18 07:55:00
2:15 AM,24.1,18.3,79,30.24,10.0,NW,5.8,-,N/A,,Clear,320,2012-02-18 08:15:00
2:35 AM,23.2,17.6,79,30.24,10.0,NW,5.8,-,N/A,,Clear,310,2012-02-18 08:35:00
2:55 AM,22.8,17.2,79,30.24,10.0,NNW,5.8,-,N/A,,Clear,330,2012-02-18 08:55:00
3:15 AM,21.6,16.7,82,30.23,10.0,NNW,5.8,-,N/A,,Clear,330,2012-02-18 09:15:00
3:35 AM,21.2,16.5,82,30.23,10.0,NNW,4.6,-,N/A,,Clear,330,2012-02-18 09:35:00
3:55 AM,20.5,16.3,84,30.23,10.0,NW,5.8,-,N/A,,Clear,320,2012-02-18 09:55:00
4:15 AM,20.1,15.8,83,30.23,10.0,NNW,5.8,-,N/A,,Clear,330,2012-02-18 10:15:00
4:35 AM,19.4,15.6,85,30.22,10.0,NNW,4.6,-,N/A,,Clear,330,2012-02-18 10:35:00
4:55 AM,19.4,15.4,85,30.22,10.0,NNW,6.9,-,N/A,,Clear,330,2012-02-18 10:55:00
5:15 AM,18.5,14.5,85,30.22,10.0,NNW,5.8,-,N/A,,Clear,330,2012-02-18 11:15:00
5:35 AM,18.5,14.4,84,30.23,10.0,Calm,Calm,-,N/A,,Clear,0,2012-02-18 11:35:00
5:55 AM,18.1,14.7,86,30.23,10.0,Calm,Calm,-,N/A,,Clear,0,2012-02-18 11:55:00
6:15 AM,17.4,14.4,88,30.23,10.0,Calm,Calm,-,N/A,,Clear,0,2012-02-18 12:15:00
6:35 AM,17.1,13.8,87,30.24,10.0,Calm,Calm,-,N/A,,Clear,0,2012-02-18 12:35:00
6:55 AM,15.8,12.7,88,30.24,10.0,Calm,Calm,-,N/A,,Clear,0,2012-02-18 12:55:00
7:15 AM,16.2,13.3,88,30.25,10.0,Calm,Calm,-,N/A,,Clear,0,2012-02-18 13:15:00
7:35 AM,17.2,14.2,88,30.26,10.0,Calm,Calm,-,N/A,,Clear,0,2012-02-18 13:35:00
7:55 AM,18.0,15.1,88,30.27,10.0,Calm,Calm,-,N/A,,Clear,0,2012-02-18 13:55:00
8:15 AM,18.3,15.3,88,30.27,10.0,Calm,Calm,-,N/A,,Clear,0,2012-02-18 14:15:00
8:35 AM,18.7,15.4,87,30.27,10.0,Calm,Calm,-,N/A,,Clear,0,2012-02-18 14:35:00
8:55 AM,20.5,17.1,87,30.27,10.0,Calm,Calm,-,N/A,,Clear,0,2012-02-18 14:55:00
9:15 AM,22.1,18.5,86,30.27,10.0,Calm,Calm,-,N/A,,Clear,0,2012-02-18 15:15:00
9:35 AM,24.1,19.0,81,30.27,10.0,Calm,Calm,-,N/A,,Clear,0,2012-02-18 15:35:00
9:55 AM,26.2,21.2,81,30.27,10.0,Calm,Calm,-,N/A,,Clear,0,2012-02-18 15:55:00
10:15 AM,27.3,22.5,82,30.27,10.0,Calm,Calm,-,N/A,,Clear,0,2012-02-18 16:15:00
10:35 AM,28.4,22.5,78,30.26,10.0,Calm,Calm,-,N/A,,Clear,0,2012-02-18 16:35:00
10:55 AM,29.3,22.8,77,30.26,10.0,Calm,Calm,-,N/A,,Clear,0,2012-02-18 16:55:00
11:15 AM,30.9,23.2,73,30.25,10.0,Calm,Calm,-,N/A,,Clear,0,2012-02-18 17:15:00
11:35 AM,32.0,23.7,71,30.25,10.0,Calm,Calm,-,N/A,,Clear,0,2012-02-18 17:35:00
11:55 AM,32.9,24.8,72,30.24,10.0,Calm,Calm,-,N/A,,Clear,0,2012-02-18 17:55:00
12:15 PM,33.6,24.6,70,30.23,10.0,Calm,Calm,-,N/A,,Clear,0,2012-02-18 18:15:00
12:35 PM,34.3,22.1,61,30.22,10.0,Calm,Calm,-,N/A,,Clear,0,2012-02-18 18:35:00
12:55 PM,35.1,21.9,59,30.21,10.0,Calm,Calm,-,N/A,,Clear,0,2012-02-18 18:55:00
1:15 PM,34.9,20.1,55,30.20,10.0,Calm,Calm,-,N/A,,Clear,0,2012-02-18 19:15:00
1:35 PM,35.2,19.6,53,30.19,10.0,NE,3.5,-,N/A,,Clear,50,2012-02-18 19:35:00
1:55 PM,35.6,17.8,48,30.19,10.0,Calm,Calm,-,N/A,,Clear,0,2012-02-18 19:55:00
2:15 PM,35.8,19.2,51,30.17,10.0,NNE,3.5,-,N/A,,Clear,30,2012-02-18 20:15:00
2:35 PM,35.8,19.0,51,30.16,10.0,East,3.5,-,N/A,,Clear,80,2012-02-18 20:35:00
2:55 PM,36.5,18.3,48,30.16,10.0,Calm,Calm,-,N/A,,Clear,0,2012-02-18 20:55:00
3:15 PM,35.8,19.4,51,30.16,10.0,Calm,Calm,-,N/A,,Clear,0,2012-02-18 21:15:00
3:35 PM,36.7,19.9,51,30.16,10.0,Calm,Calm,-,N/A,,Clear,0,2012-02-18 21:35:00
3:55 PM,36.7,19.6,50,30.16,10.0,Calm,Calm,-,N/A,,Clear,0,2012-02-18 21:55:00
4:15 PM,36.7,19.8,50,30.16,10.0,Calm,Calm,-,N/A,,Clear,0,2012-02-18 22:15:00
4:35 PM,36.5,19.8,51,30.16,10.0,Calm,Calm,-,N/A,,Clear,0,2012-02-18 22:35:00
4:55 PM,36.3,20.7,53,30.16,10.0,Calm,Calm,-,N/A,,Clear,0,2012-02-18 22:55:00
5:15 PM,35.8,21.9,57,30.16,10.0,Calm,Calm,-,N/A,,Clear,0,2012-02-18 23:15:00
5:35 PM,34.5,22.8,62,30.16,10.0,Calm,Calm,-,N/A,,Clear,0,2012-02-18 23:35:00
5:55 PM,33.4,21.4,61,30.16,10.0,Calm,Calm,-,N/A,,Clear,0,2012-02-18 23:55:00
6:15 PM,31.3,23.5,73,30.16,10.0,SE,3.5,-,N/A,,Clear,130,2012-02-19 00:15:00
6:35 PM,30.2,23.0,75,30.15,10.0,ESE,4.6,-,N/A,,Clear,120,2012-02-19 00:35:00
6:55 PM,28.8,23.0,79,30.15,10.0,ESE,4.6,-,N/A,,Clear,110,2012-02-19 00:55:00
7:15 PM,27.9,22.8,81,30.15,10.0,ESE,4.6,-,N/A,,Clear,110,2012-02-19 01:15:00
7:35 PM,29.1,23.0,78,30.16,10.0,SE,3.5,-,N/A,,Clear,140,2012-02-19 01:35:00
7:55 PM,29.3,22.6,76,30.16,10.0,Calm,Calm,-,N/A,,Clear,0,2012-02-19 01:55:00
8:15 PM,29.1,22.8,77,30.16,10.0,Calm,Calm,-,N/A,,Scattered Clouds,0,2012-02-19 02:15:00
8:35 PM,29.3,23.9,80,30.16,10.0,Calm,Calm,-,N/A,,Scattered Clouds,0,2012-02-19 02:35:00
8:55 PM,28.9,24.1,82,30.16,10.0,Calm,Calm,-,N/A,,Scattered Clouds,0,2012-02-19 02:55:00
9:15 PM,27.7,23.5,84,30.15,10.0,Calm,Calm,-,N/A,,Scattered Clouds,0,2012-02-19 03:15:00
9:35 PM,25.7,22.6,88,30.16,10.0,Calm,Calm,-,N/A,,Clear,0,2012-02-19 03:35:00
9:55 PM,25.9,23.2,90,30.16,10.0,Calm,Calm,-,N/A,,Clear,0,2012-02-19 03:55:00
10:15 PM,26.8,23.0,86,30.15,10.0,Calm,Calm,-,N/A,,Clear,0,2012-02-19 04:15:00
10:35 PM,26.4,24.1,91,30.15,10.0,Calm,Calm,-,N/A,,Clear,0,2012-02-19 04:35:00
10:55 PM,24.6,22.1,90,30.14,10.0,Calm,Calm,-,N/A,,Clear,0,2012-02-19 04:55:00
11:15 PM,22.8,21.2,93,30.14,10.0,Calm,Calm,-,N/A,,Clear,0,2012-02-19 05:15:00
11:35 PM,24.8,22.1,89,30.13,10.0,Calm,Calm,-,N/A,,Clear,0,2012-02-19 05:35:00
11:55 PM,23.5,21.9,94,30.12,10.0,Calm,Calm,-,N/A,,Clear,0,2012-02-19 05:55:00